• In Netherlands
  • List of Countries
  • For 7 days
  • Water Temperature
  • Satellite Maps
  • Weather Map
  • Weather Widgets
  • user-avatar
    Login

    Hourly Weather Oran

    Today, 24 June, Saturday

    Time Temperature Precipitation Wind Pressure Humidity
    00:00 +25°C° 0 mm 0 mps 754 mmHg 52%
    01:00 +25°C° 0 mm 0 mps 754 mmHg 53%
    02:00 +24°C° 0 mm 0 mps 754 mmHg 53%
    03:00 +24°C° 0 mm 0 mps 754 mmHg 54%
    04:00 +25°C° 0 mm 0 mps 754 mmHg 51%
    05:00 +26°C° 0 mm 0 mps 754 mmHg 49%
    06:00 +29°C° 0 mm 1 mps 754 mmHg 46%
    07:00 +31°C° 0 mm 1 mps 754 mmHg 39%
    08:00 +34°C° 0 mm 1 mps 754 mmHg 31%
    09:00 +37°C° 0 mm 1 mps 754 mmHg 24%
    10:00 +39°C° 0 mm 2 mps 753 mmHg 21%
    11:00 +40°C° 0 mm 3 mps 753 mmHg 19%
    12:00 +43°C° 0 mm 4 mps 753 mmHg 16%
    13:00 +43°C° 0 mm 5 mps 752 mmHg 16%
    14:00 +43°C° 0 mm 5 mps 752 mmHg 16%
    15:00 +44°C° 0 mm 6 mps 751 mmHg 16%
    16:00 +42°C° 0 mm 6 mps 751 mmHg 18%
    17:00 +41°C° 0 mm 5 mps 751 mmHg 20%
    18:00 +39°C° 0 mm 5 mps 750 mmHg 22%
    19:00 +36°C° 0 mm 5 mps 751 mmHg 26%
    20:00 +34°C° 0 mm 5 mps 751 mmHg 29%
    21:00 +33°C° 0 mm 4 mps 751 mmHg 33%
    22:00 +32°C° 0 mm 4 mps 751 mmHg 32%
    23:00 +31°C° 0 mm 3 mps 750 mmHg 32%

    Tomorrow, 25 June, Sunday

    Time Temperature Precipitation Wind Pressure Humidity
    00:00 +31°C° 0 mm 3 mps 750 mmHg 31%
    01:00 +31°C° 0 mm 3 mps 750 mmHg 31%
    02:00 +31°C° 0 mm 3 mps 749 mmHg 31%
    03:00 +30°C° 0 mm 3 mps 749 mmHg 31%
    04:00 +31°C° 0 mm 3 mps 749 mmHg 30%
    05:00 +31°C° 0 mm 3 mps 749 mmHg 28%
    06:00 +33°C° 0 mm 4 mps 749 mmHg 27%
    07:00 +35°C° 0 mm 4 mps 749 mmHg 23%
    08:00 +38°C° 0 mm 4 mps 749 mmHg 19%
    09:00 +42°C° 0 mm 3 mps 749 mmHg 15%
    10:00 +43°C° 0 mm 4 mps 749 mmHg 14%
    11:00 +44°C° 0 mm 4 mps 749 mmHg 14%
    12:00 +46°C° 0 mm 5 mps 749 mmHg 13%
    13:00 +46°C° 0 mm 5 mps 748 mmHg 14%
    14:00 +46°C° 0 mm 6 mps 748 mmHg 14%
    15:00 +46°C° 0 mm 6 mps 747 mmHg 14%
    16:00 +45°C° 0 mm 6 mps 747 mmHg 17%
    17:00 +42°C° 0 mm 5 mps 747 mmHg 20%
    18:00 +40°C° 0 mm 5 mps 746 mmHg 23%
    19:00 +38°C° 0 mm 4 mps 747 mmHg 26%
    20:00 +36°C° 0 mm 3 mps 747 mmHg 30%
    21:00 +35°C° 0 mm 2 mps 747 mmHg 33%
    22:00 +34°C° 0 mm 2 mps 747 mmHg 37%
    23:00 +33°C° 0 mm 3 mps 747 mmHg 40%

    Day after tomorrow, 26 June, Monday

    Time Temperature Precipitation Wind Pressure Humidity
    00:00 +31°C° 0 mm 3 mps 747 mmHg 44%
    01:00 +30°C° 0 mm 3 mps 747 mmHg 46%
    02:00 +30°C° 0 mm 2 mps 747 mmHg 48%
    03:00 +29°C° 0 mm 1 mps 747 mmHg 50%
    04:00 +29°C° 0 mm 2 mps 748 mmHg 52%
    05:00 +29°C° 0 mm 3 mps 748 mmHg 55%
    06:00 +29°C° 0 mm 3 mps 748 mmHg 57%
    07:00 +32°C° 0 mm 4 mps 749 mmHg 51%
    08:00 +34°C° 0 mm 4 mps 749 mmHg 45%
    09:00 +36°C° 0 mm 4 mps 749 mmHg 39%
    10:00 +37°C° 0 mm 4 mps 749 mmHg 36%
    11:00 +38°C° 0 mm 4 mps 749 mmHg 33%
    12:00 +40°C° 0 mm 4 mps 749 mmHg 30%
    13:00 +40°C° 0 mm 4 mps 748 mmHg 30%
    14:00 +40°C° 0 mm 4 mps 748 mmHg 30%
    15:00 +40°C° 0 mm 4 mps 747 mmHg 30%
    16:00 +38°C° 0 mm 3 mps 747 mmHg 31%
    17:00 +37°C° 0 mm 3 mps 747 mmHg 32%
    18:00 +36°C° 0 mm 3 mps 747 mmHg 32%
    19:00 +35°C° 0 mm 3 mps 747 mmHg 35%
    20:00 +33°C° 0 mm 3 mps 748 mmHg 39%
    21:00 +31°C° 0 mm 3 mps 748 mmHg 42%
    22:00 +30°C° 0 mm 3 mps 748 mmHg 42%
    23:00 +30°C° 0 mm 3 mps 748 mmHg 43%

    27 June, Tuesday

    Time Temperature Precipitation Wind Pressure Humidity
    00:00 +30°C° 0 mm 3 mps 748 mmHg 44%
    01:00 +29°C° 0 mm 3 mps 747 mmHg 45%
    02:00 +29°C° 0 mm 3 mps 747 mmHg 46%
    03:00 +28°C° 0 mm 3 mps 747 mmHg 48%
    04:00 +29°C° 0 mm 3 mps 747 mmHg 46%
    05:00 +29°C° 0 mm 3 mps 747 mmHg 44%
    06:00 +30°C° 0 mm 3 mps 747 mmHg 42%
    07:00 +33°C° 0 mm 3 mps 747 mmHg 38%
    08:00 +34°C° 0 mm 4 mps 748 mmHg 34%
    09:00 +36°C° 0 mm 5 mps 748 mmHg 29%
    10:00 +37°C° 0 mm 5 mps 747 mmHg 28%
    11:00 +37°C° 0 mm 5 mps 747 mmHg 27%
    12:00 +39°C° 0 mm 6 mps 747 mmHg 26%
    13:00 +39°C° 0 mm 6 mps 747 mmHg 25%
    14:00 +39°C° 0 mm 5 mps 746 mmHg 25%
    15:00 +37°C° 0 mm 5 mps 746 mmHg 24%
    16:00 +36°C° 0 mm 5 mps 746 mmHg 24%
    17:00 +36°C° 0 mm 5 mps 746 mmHg 25%
    18:00 +35°C° 0 mm 5 mps 746 mmHg 25%
    19:00 +34°C° 0 mm 5 mps 746 mmHg 27%
    20:00 +33°C° 0 mm 4 mps 746 mmHg 29%
    21:00 +30°C° 0 mm 4 mps 747 mmHg 31%
    22:00 +30°C° 0 mm 4 mps 747 mmHg 32%
    23:00 +30°C° 0 mm 4 mps 747 mmHg 33%

    28 June, Wednesday

    Time Temperature Precipitation Wind Pressure Humidity
    00:00 +29°C° 0 mm 4 mps 746 mmHg 33%
    01:00 +28°C° 0.3 mm 5 mps 746 mmHg 38%
    02:00 +28°C° 0.3 mm 5 mps 746 mmHg 42%
    03:00 +27°C° 0.3 mm 6 mps 746 mmHg 47%
    04:00 +27°C° 0 mm 6 mps 746 mmHg 49%
    05:00 +27°C° 0 mm 7 mps 746 mmHg 52%
    06:00 +27°C° 0 mm 7 mps 747 mmHg 54%
    07:00 +28°C° 0 mm 7 mps 747 mmHg 51%
    08:00 +29°C° 0 mm 8 mps 747 mmHg 49%
    09:00 +31°C° 0 mm 8 mps 747 mmHg 46%
    10:00 +32°C° 0 mm 8 mps 747 mmHg 43%
    11:00 +33°C° 0 mm 9 mps 747 mmHg 41%
    12:00 +33°C° 0 mm 9 mps 747 mmHg 39%
    13:00 +33°C° 0 mm 9 mps 746 mmHg 38%
    14:00 +33°C° 0 mm 10 mps 746 mmHg 37%
    15:00 +33°C° 0 mm 10 mps 746 mmHg 37%
    16:00 +32°C° 0 mm 9 mps 746 mmHg 40%
    17:00 +31°C° 0 mm 9 mps 746 mmHg 43%
    18:00 +29°C° 0 mm 9 mps 746 mmHg 47%
    19:00 +28°C° 0 mm 8 mps 747 mmHg 49%
    20:00 +27°C° 0 mm 8 mps 748 mmHg 52%
    21:00 +27°C° 0 mm 8 mps 748 mmHg 54%
    22:00 +26°C° 0 mm 8 mps 748 mmHg 56%
    23:00 +26°C° 0 mm 8 mps 748 mmHg 57%

    29 June, Thursday

    Time Temperature Precipitation Wind Pressure Humidity
    00:00 +26°C° 0 mm 8 mps 748 mmHg 59%
    01:00 +24°C° 0 mm 8 mps 748 mmHg 61%
    02:00 +23°C° 0 mm 8 mps 748 mmHg 64%
    03:00 +23°C° 0 mm 8 mps 748 mmHg 66%
    04:00 +23°C° 0 mm 9 mps 748 mmHg 66%
    05:00 +23°C° 0 mm 9 mps 749 mmHg 66%
    06:00 +23°C° 0 mm 9 mps 749 mmHg 66%
    07:00 +24°C° 0 mm 10 mps 749 mmHg 62%
    08:00 +27°C° 0 mm 10 mps 749 mmHg 57%
    09:00 +28°C° 0 mm 11 mps 749 mmHg 52%
    10:00 +29°C° 0 mm 11 mps 749 mmHg 49%
    11:00 +29°C° 0 mm 11 mps 749 mmHg 46%
    12:00 +31°C° 0 mm 11 mps 749 mmHg 43%
    13:00 +31°C° 0 mm 10 mps 749 mmHg 41%
    14:00 +32°C° 0 mm 10 mps 748 mmHg 38%
    15:00 +32°C° 0 mm 9 mps 748 mmHg 36%
    16:00 +31°C° 0 mm 9 mps 748 mmHg 37%
    17:00 +29°C° 0 mm 8 mps 748 mmHg 38%
    18:00 +29°C° 0 mm 7 mps 748 mmHg 39%
    19:00 +28°C° 0 mm 7 mps 749 mmHg 43%
    20:00 +27°C° 0 mm 6 mps 749 mmHg 47%
    21:00 +26°C° 0 mm 6 mps 750 mmHg 51%
    22:00 +24°C° 0 mm 6 mps 750 mmHg 53%
    23:00 +24°C° 0 mm 6 mps 750 mmHg 54%
    Show more